Simultaneous Nadir Overpasses (SNOs) Predictions

Prediction of SNOs between GOES-15 and METOP-B Satellite Orbit:

Table of predicted SNOs for the next 14.0 days since TLE Epoch: 7/20/2018
Index Date Time (GOES-15) GOES-15 Lat,Lon METOP-B Lat,Lon Distance(km) Time Diff (sec)
1 07/21/2018 06:42:25 0.08,-135.49 -0.52,-138.08 295.36 80
2 07/22/2018 06:19:06 0.11,-135.50 0.64,-133.10 273.56 80
3 07/23/2018 18:40:36 -0.07,-135.53 0.37,-137.66 242.01 80
4 07/24/2018 18:17:16 -0.10,-135.53 -0.73,-132.66 326.44 80
5 07/26/2018 06:38:54 0.06,-135.49 -0.34,-137.25 200.08 80
6 07/27/2018 06:15:34 0.09,-135.49 0.82,-132.26 368.03 80
7 07/28/2018 18:37:04 -0.06,-135.51 0.24,-136.81 148.41 80
8 07/29/2018 18:13:44 -0.09,-135.50 -0.92,-131.83 419.35 80
9 07/31/2018 06:35:22 0.05,-135.46 -0.15,-136.41 108.08 80
10 08/01/2018 06:12:02 0.08,-135.45 0.96,-131.41 459.44 80
11 08/02/2018 18:33:32 -0.04,-135.46 0.05,-135.98 57.86 80




NCC Satellite Simultaneous Nadir Overpasses (SNOs) Prediction Service
